Location: Briis
(48.6240°N, 2.1211°E)
Time: 11:39:36
(UTC+00:00)

IRIDIUM 114 - Pass Details

Date: 25 September 2020
Orbit: 776 x 779 km, 86.4° (Epoch: 31 October)

Event Time Altitude Azimuth Distance (km) Brightness Sun altitude
Rises 03:13:02 0° 356° (N) 3,274 7.9 -24.6°
Reaches altitude 10° 03:15:24 10° 358° (N) 2,341 7.1 -24.2°
Maximum altitude 03:20:39 82° 86° (E) 792 4.3 -23.5°
Enters shadow 03:24:26 19° 173° (S) 1,776 6.0 -22.9°
